FW2958 Weather Reports


time (UTC)temp
C
wind
direction
speed
KPH
gust
KPH
rain 1hr
cm
rain 24hr
cm
rain mn
cm
humidity
%
barometer
mb
20260508220253 21 269 3.2 9.7 0.00 0.00 0.00 40 1011.3
20260508215754 21 245 3.2 11.3 0.00 0.00 0.00 40 1011.2
20260508215253 21 243 1.6 14.5 0.00 0.00 0.00 40 1011.2
20260508214753 21 272 11.3 16.1 0.00 0.00 0.00 39 1011.3
20260508213753 21 264 1.6 8.0 0.00 0.00 0.00 36 1011.1
20260508213253 21 269 0.0 9.7 0.00 0.00 0.00 37 1011.1
20260508212253 21 266 0.0 4.8 0.00 0.00 0.00 39 1011.0
20260508211753 21 281 3.2 12.9 0.00 0.00 0.00 40 1011.0
20260508210753 22 281 8.0 12.9 0.00 0.00 0.00 35 1011.1
20260508210253 22 303 0.0 1.6 0.00 0.00 0.00 34 1011.2
20260508205753 21 344 0.0 0.0 0.00 0.00 0.00 35 1011.2
20260508204753 21 341 0.0 4.8 0.00 0.00 0.00 39 1011.2
20260508204253 21 269 1.6 4.8 0.00 0.00 0.00 39 1011.3
20260508203754 21 15 1.6 4.8 0.00 0.00 0.00 39 1011.3
20260508203253 21 38 0.0 4.8 0.00 0.00 0.00 35 1011.6
20260508202753 21 300 3.2 9.7 0.00 0.00 0.00 36 1011.7
20260508202254 21 300 0.0 0.0 0.00 0.00 0.00 36 1011.8
20260508201754 21 285 1.6 11.3 0.00 0.00 0.00 40 1011.8
20260508201254 21 310 3.2 11.3 0.00 0.00 0.00 39 1011.9
20260508200754 21 284 3.2 11.3 0.00 0.00 0.00 35 1012.2
20260508200254 21 269 3.2 9.7 0.00 0.00 0.00 37 1012.4
20260508195754 21 207 0.0 0.0 0.00 0.00 0.00 41 1012.5
20260508195254 21 285 0.0 16.1 0.00 0.00 0.00 37 1012.7
20260508194754 21 270 3.2 14.5 0.00 0.00 0.00 35 1012.7
20260508194253 21 248 1.6 12.9 0.00 0.00 0.00 36 1012.9
20260508193753 21 235 0.0 0.0 0.00 0.00 0.00 36 1013.0
20260508193253 20 246 0.0 4.8 0.00 0.00 0.00 35 1013.0
20260508192253 20 277 4.8 11.3 0.00 0.00 0.00 38 1013.1
20260508191753 20 270 0.0 0.0 0.00 0.00 0.00 35 1013.3
20260508191253 20 211 0.0 0.0 0.00 0.00 0.00 33 1013.2
20260508190754 20 286 0.0 11.3 0.00 0.00 0.00 38 1013.1
20260508190254 20 293 0.0 11.3 0.00 0.00 0.00 42 1013.0
20260508185754 20 274 1.6 11.3 0.00 0.00 0.00 37 1013.4
20260508185254 20 283 1.6 11.3 0.00 0.00 0.00 40 1013.4
20260508184754 20 256 3.2 11.3 0.00 0.00 0.00 44 1013.4
20260508184254 19 248 4.8 12.9 0.00 0.00 0.00 41 1013.5
20260508183754 19 289 0.0 8.0 0.00 0.00 0.00 42 1013.6
20260508183254 19 253 8.0 11.3 0.00 0.00 0.00 44 1013.7
20260508181253 18 127 0.0 0.0 0.00 0.00 0.00 43 1014.0
20260508180754 18 67 0.0 0.0 0.00 0.00 0.00 49 1014.0
20260508180253 18 34 0.0 0.0 0.00 0.00 0.00 42 1014.2
20260508175254 18 94 3.2 11.3 0.00 0.00 0.00 43 1014.3
20260508174254 18 294 0.0 9.7 0.00 0.00 0.00 40 1014.4
20260508173754 18 274 0.0 0.0 0.00 0.00 0.00 47 1014.6
20260508173254 18 301 0.0 0.0 0.00 0.00 0.00 42 1014.7
20260508172754 18 265 0.0 0.0 0.00 0.00 0.00 38 1014.8
20260508172254 18 24 0.0 0.0 0.00 0.00 0.00 40 1015.0
20260508171754 18 347 0.0 11.3 0.00 0.00 0.00 45 1015.2
20260508171254 18 271 0.0 9.7 0.00 0.00 0.00 42 1015.2
20260508170754 18 337 0.0 8.0 0.00 0.00 0.00 41 1015.3
20260508170254 17 69 1.6 9.7 0.00 0.00 0.00 39 1015.6
20260508165754 18 3 0.0 0.0 0.00 0.00 0.00 38 1015.6
20260508165254 17 251 0.0 0.0 0.00 0.00 0.00 40 1015.7
20260508164753 17 72 0.0 4.8 0.00 0.00 0.00 43 1015.8
20260508164254 17 45 1.6 8.0 0.00 0.00 0.00 42 1015.9
20260508163753 17 127 0.0 0.0 0.00 0.00 0.00 43 1015.9
20260508163254 17 33 0.0 0.0 0.00 0.00 0.00 44 1015.9
20260508162754 17 69 0.0 8.0 0.00 0.00 0.00 43 1016.0
20260508162254 17 79 6.4 9.7 0.00 0.00 0.00 45 1016.0
20260508161754 17 36 4.8 12.9 0.00 0.00 0.00 39 1016.2
20260508161254 17 351 0.0 0.0 0.00 0.00 0.00 43 1016.3
20260508155754 16 266 3.2 8.0 0.00 0.00 0.00 43 1016.5
20260508155254 16 292 0.0 0.0 0.00 0.00 0.00 45 1016.6
20260508154754 16 290 0.0 0.0 0.00 0.00 0.00 41 1016.7
20260508154254 16 71 0.0 0.0 0.00 0.00 0.00 45 1016.7
20260508153754 16 22 0.0 0.0 0.00 0.00 0.00 45 1016.9
20260508152754 16 355 0.0 0.0 0.00 0.00 0.00 41 1016.9
20260508152254 16 38 0.0 0.0 0.00 0.00 0.00 47 1017.0
20260508151754 16 350 0.0 0.0 0.00 0.00 0.00 53 1017.0
20260508151254 15 9 0.0 0.0 0.00 0.00 0.00 48 1017.0
20260508150754 15 64 0.0 0.0 0.00 0.00 0.00 55 1017.0
20260508150254 15 64 0.0 0.0 0.00 0.03 0.00 52 1017.0
20260508145754 15 42 0.0 0.0 0.00 0.03 0.00 49 1017.1
20260508145254 14 14 0.0 0.0 0.00 0.03 0.00 57 1017.1
20260508144754 13 110 0.0 0.0 0.00 0.03 0.00 70 1017.2
20260508144254 13 63 0.0 0.0 0.00 0.03 0.00 71 1017.3
20260508143755 12 63 0.0 0.0 0.00 0.03 0.00 75 1017.2
20260508143255 12 343 0.0 0.0 0.00 0.03 0.00 83 1017.3
20260508142755 12 111 0.0 0.0 0.00 0.03 0.00 87 1017.4
20260508142254 12 94 0.0 0.0 0.00 0.03 0.00 91 1017.4
20260508140754 11 74 0.0 0.0 0.00 0.03 0.00 100 1017.4
20260508140254 11 60 0.0 0.0 0.00 0.03 0.00 100 1017.4
20260508135254 11 39 0.0 0.0 0.00 0.05 0.00 100 1017.4
20260508134754 11 39 0.0 0.0 0.00 0.05 0.00 100 1017.4
20260508134254 10 23 0.0 0.0 0.00 0.05 0.00 100 1017.5
20260508133754 11 18 0.0 0.0 0.00 0.05 0.00 100 1017.5
20260508132755 10 205 0.0 0.0 0.00 0.05 0.00 100 1017.4
20260508131755 10 205 0.0 0.0 0.00 0.05 0.00 100 1017.3
20260508131254 10 188 0.0 0.0 0.00 0.05 0.00 100 1017.3
20260508130754 9 188 0.0 0.0 0.00 0.05 0.00 100 1017.4
20260508130255 8 188 0.0 0.0 0.00 0.05 0.00 100 1017.5
20260508125255 8 188 0.0 0.0 0.00 0.05 0.00 100 1017.5
20260508124755 8 198 0.0 0.0 0.00 0.05 0.00 100 1017.5
20260508124254 7 198 0.0 0.0 0.00 0.05 0.00 100 1017.5
20260508123754 7 199 0.0 0.0 0.00 0.05 0.00 100 1017.4
20260508123254 7 199 0.0 0.0 0.00 0.05 0.00 100 1017.3
20260508122754 7 199 0.0 0.0 0.00 0.05 0.00 100 1017.4
20260508121754 7 199 0.0 0.0 0.00 0.05 0.00 100 1017.2
20260508121254 7 225 0.0 0.0 0.00 0.05 0.00 100 1017.1
20260508120754 7 225 0.0 0.0 0.00 0.05 0.00 100 1017.1
20260508115753 6 225 0.0 0.0 0.00 0.08 0.00 100 1017.0
20260508114754 6 225 0.0 0.0 0.00 0.10 0.00 100 1016.9
20260508114254 6 225 0.0 0.0 0.00 0.13 0.00 100 1016.9
20260508113755 6 225 0.0 0.0 0.00 0.13 0.00 100 1016.9
20260508113255 6 225 0.0 0.0 0.00 0.13 0.00 100 1016.9
20260508112755 6 225 0.0 0.0 0.00 0.15 0.00 100 1016.6
20260508111755 6 225 0.0 0.0 0.00 0.18 0.00 100 1016.4
20260508111255 6 225 0.0 0.0 0.00 0.20 0.00 100 1016.4
20260508110755 6 225 0.0 0.0 0.00 0.23 0.00 100 1016.4
20260508110255 6 225 0.0 0.0 0.00 0.30 0.00 100 1016.3
20260508105754 6 225 0.0 0.0 0.00 0.30 0.00 100 1016.2
20260508105254 6 225 0.0 0.0 0.00 0.30 0.00 100 1016.0
20260508104754 6 225 0.0 0.0 0.00 0.30 0.00 100 1015.9
20260508104255 6 225 0.0 0.0 0.00 0.30 0.00 100 1015.9
20260508103755 6 225 0.0 0.0 0.00 0.30 0.00 100 1015.8
20260508102254 6 225 0.0 0.0 0.00 0.30 0.00 100 1015.7
20260508101754 6 225 0.0 0.0 0.00 0.30 0.00 100 1015.6
20260508101255 7 225 0.0 0.0 0.00 0.33 0.00 100 1015.5
20260508100755 7 225 0.0 0.0 0.00 0.33 0.00 100 1015.4
20260508095754 7 225 0.0 0.0 0.00 0.36 0.00 100 1015.3
20260508094754 7 225 0.0 0.0 0.00 0.38 0.00 100 1015.2
20260508094255 7 225 0.0 0.0 0.00 0.43 0.00 100 1015.2
20260508093254 7 225 0.0 0.0 0.00 0.46 0.00 100 1015.2
20260508092755 7 225 0.0 0.0 0.00 0.46 0.00 100 1015.2
20260508092254 7 225 0.0 0.0 0.00 0.46 0.00 100 1015.2
20260508091255 7 225 0.0 0.0 0.00 0.51 0.00 100 1015.2
20260508090755 7 225 0.0 0.0 0.00 0.53 0.00 100 1015.1
20260508085754 8 225 0.0 0.0 0.00 0.61 0.00 100 1015.0
20260508084755 8 225 0.0 0.0 0.00 0.61 0.00 100 1014.8
20260508084254 8 225 0.0 0.0 0.00 0.61 0.00 100 1015.0
20260508083755 7 225 0.0 0.0 0.00 0.61 0.00 100 1014.8
20260508083255 7 225 0.0 0.0 0.00 0.64 0.00 100 1014.8
20260508082754 7 225 0.0 0.0 0.00 0.64 0.00 100 1014.9
20260508082255 7 225 0.0 0.0 0.00 0.64 0.00 100 1015.0
20260508081754 7 225 0.0 0.0 0.00 0.64 0.00 100 1014.9
20260508081254 7 225 0.0 0.0 0.00 0.64 0.00 100 1014.9
20260508080754 7 225 0.0 0.0 0.00 0.64 0.00 100 1014.9
20260508075754 7 225 0.0 0.0 0.00 0.64 0.00 100 1015.0
20260508075254 7 225 0.0 0.0 0.00 0.64 0.00 100 1014.9
20260508074754 7 225 0.0 0.0 0.00 0.64 0.00 100 1014.9
20260508074254 7 225 0.0 0.0 0.00 0.64 0.00 100 1014.9
20260508073754 7 225 0.0 0.0 0.00 0.64 0.00 100 1014.9
20260508072254 8 225 0.0 0.0 0.00 0.76 0.00 100 1014.8
20260508071754 8 225 0.0 0.0 0.00 0.76 0.00 100 1014.7
20260508070754 8 225 0.0 0.0 0.00 0.76 0.00 100 1014.7
20260508065754 8 225 0.0 0.0 0.00 0.76 0.00 100 1014.6
20260508065255 8 225 0.0 0.0 0.00 0.76 0.00 100 1014.6
20260508064754 8 225 0.0 0.0 0.00 0.76 0.00 100 1014.7
20260508064254 8 225 0.0 0.0 0.00 0.76 0.00 100 1014.9
20260508063755 8 225 0.0 0.0 0.00 0.76 0.00 100 1014.9
20260508062255 8 225 0.0 0.0 0.00 0.79 0.00 100 1014.9
20260508061755 8 225 0.0 0.0 0.00 0.79 0.00 100 1015.0
20260508060755 8 225 0.0 0.0 0.00 0.79 0.00 100 1015.0
20260508060255 8 225 0.0 0.0 0.00 0.79 0.00 100 1014.9
20260508055255 8 225 0.0 0.0 0.00 0.81 0.00 100 1015.0
20260508054755 8 225 0.0 0.0 0.00 0.81 0.00 100 1014.9
20260508054254 8 225 0.0 0.0 0.00 0.84 0.00 100 1015.0
20260508053255 8 225 0.0 0.0 0.00 0.84 0.00 100 1015.0
20260508052755 8 225 0.0 0.0 0.00 0.84 0.00 100 1014.9
20260508052255 8 225 0.0 0.0 0.00 0.84 0.00 100 1014.9
20260508051755 8 225 0.0 0.0 0.00 0.84 0.00 100 1015.0
20260508051255 8 225 0.0 0.0 0.00 0.84 0.00 100 1014.9
20260508050255 7 225 0.0 0.0 0.00 0.84 0.00 100 1014.8
20260508045755 7 225 0.0 0.0 0.00 0.84 0.00 100 1014.8
20260508045255 7 225 0.0 0.0 0.00 0.84 0.00 100 1014.7
20260508043755 7 225 0.0 0.0 0.00 0.84 0.00 100 1014.5
20260508043255 7 225 0.0 0.0 0.00 0.84 0.00 100 1014.5
20260508042755 7 225 0.0 0.0 0.00 0.84 0.00 100 1014.4
20260508042255 7 225 0.0 0.0 0.00 0.84 0.00 100 1014.4
20260508041755 7 225 0.0 0.0 0.00 0.84 0.00 100 1014.4
20260508041255 7 225 0.0 0.0 0.00 0.84 0.00 100 1014.3
20260508040804 7 225 0.0 0.0 0.00 0.84 0.00 100 1014.3
20260508040255 7 225 0.0 0.0 0.00 0.84 0.00 100 1014.2
20260508035754 7 225 0.0 0.0 0.00 0.84 0.84 100 1014.1
20260508035255 7 225 0.0 0.0 0.00 0.84 0.84 100 1014.0
20260508034755 7 225 0.0 0.0 0.00 0.84 0.84 100 1014.0
20260508034255 7 225 0.0 0.0 0.00 0.84 0.84 100 1014.0
20260508033755 7 225 0.0 0.0 0.00 0.86 0.84 100 1013.9
20260508032755 7 225 0.0 0.0 0.00 0.86 0.84 100 1014.1
20260508032255 7 225 0.0 0.0 0.00 0.86 0.84 100 1014.1
20260508031755 7 225 0.0 0.0 0.00 0.86 0.84 100 1014.2
20260508030755 7 225 0.0 0.0 0.00 0.86 0.84 100 1014.0
20260508025755 7 225 0.0 0.0 0.00 0.86 0.84 100 1013.9
20260508025254 7 225 0.0 0.0 0.00 0.86 0.84 99 1013.8
20260508024755 7 225 0.0 0.0 0.00 0.86 0.84 99 1013.8
20260508024255 7 225 0.0 0.0 0.00 0.86 0.84 99 1013.7
20260508023255 7 225 0.0 0.0 0.00 0.86 0.84 99 1013.6
20260508021255 8 225 0.0 0.0 0.00 0.86 0.84 97 1013.4
20260508020755 8 225 0.0 0.0 0.00 0.86 0.84 97 1013.3
20260508020255 8 225 0.0 0.0 0.00 0.86 0.84 96 1013.2
20260508015755 8 225 0.0 0.0 0.00 0.86 0.84 96 1013.1
20260508015255 8 225 0.0 0.0 0.00 0.86 0.84 96 1013.1
20260508014255 9 225 0.0 0.0 0.00 0.91 0.84 96 1012.7
20260508013755 9 225 0.0 0.0 0.00 0.94 0.84 95 1012.5
20260508013256 9 225 0.0 0.0 0.00 0.97 0.84 95 1012.5
20260508012755 9 225 0.0 0.0 0.00 0.97 0.84 95 1012.5
20260508012255 9 225 0.0 0.0 0.00 0.99 0.84 94 1012.5
20260508011755 10 225 0.0 0.0 0.00 1.04 0.84 94 1012.4
20260508011255 10 225 0.0 0.0 0.00 1.07 0.84 94 1012.4
20260508010755 10 225 0.0 0.0 0.00 1.09 0.84 94 1012.3
20260508010255 10 225 0.0 0.0 0.00 1.12 0.84 93 1012.2
20260508005255 10 225 0.0 0.0 0.00 1.14 0.84 92 1012.1
20260508004755 10 225 0.0 0.0 0.00 1.17 0.84 92 1012.0
20260508004255 11 225 0.0 0.0 0.00 1.19 0.84 92 1011.9
20260508003755 11 225 0.0 0.0 0.00 1.22 0.84 91 1011.9
20260508003255 11 225 0.0 0.0 0.00 1.22 0.84 91 1011.8
20260508002256 11 225 0.0 0.0 0.00 1.22 0.84 90 1011.7
20260508001755 12 225 0.0 0.0 0.00 1.24 0.84 89 1011.6
20260508001255 12 225 0.0 0.0 0.00 1.24 0.84 88 1011.6
20260508000755 12 233 0.0 0.0 0.00 1.24 0.84 87 1011.7
20260508000257 12 233 0.0 0.0 0.00 1.24 0.84 85 1011.6
20260507235255 13 233 0.0 0.0 0.00 1.24 0.84 82 1011.8
20260507234755 13 233 0.0 0.0 0.00 1.24 0.84 81 1011.8
20260507234256 13 233 0.0 0.0 0.00 1.24 0.84 79 1011.7
20260507233755 13 233 0.0 0.0 0.00 1.24 0.84 77 1011.8
20260507233255 14 233 0.0 0.0 0.00 1.24 0.84 76 1011.7
20260507232755 14 233 0.0 0.0 0.00 1.24 0.84 75 1011.7
20260507232255 15 233 0.0 0.0 0.00 1.24 0.84 71 1011.7
20260507231755 15 233 0.0 0.0 0.00 1.27 0.84 71 1011.8
20260507231255 15 233 0.0 0.0 0.00 1.27 0.84 71 1011.8
20260507230755 15 233 0.0 0.0 0.00 1.27 0.84 72 1011.8
20260507230255 15 233 0.0 0.0 0.00 1.27 0.84 70 1011.9
20260507225756 15 232 0.0 0.0 0.00 1.30 0.84 69 1011.8
20260507225255 15 232 0.0 0.0 0.00 1.32 0.84 69 1012.0
20260507223755 15 99 0.0 0.0 0.00 1.32 0.84 75 1011.9
20260507222755 13 99 0.0 0.0 0.00 1.32 0.84 76 1012.0
20260507222255 13 55 0.0 0.0 0.00 1.32 0.84 77 1011.8
20260507221755 14 55 0.0 0.0 0.00 1.32 0.84 75 1011.8
20260507221256 14 55 0.0 0.0 0.00 1.32 0.84 74 1011.7
20260507220755 14 55 0.0 0.0 0.00 1.32 0.84 74 1011.8